Twin Falls, ID

7:14 PM MST on February 24, 2017 (GMT -0700)
Joslin Field-Magic Valley Regional

Weather History for KTWF - September, 2013

Change the Weather History Date:

Friday, September 6, 2013

  Actual Average Record
Temperature  
Mean Temperature 70 °F -  
Max Temperature 80 °F 82 °F 93 °F (1980)
Min Temperature 59 °F 50 °F 39 °F (2016)
Degree Days  
Heating Degree Days 0 2  
Month to date heating degree days 0 12  
Since 1 July heating degree days 0 33  
Cooling Degree Days 5 4  
Month to date cooling degree days 54 25  
Year to date cooling degree days 1093 642  
Growing Degree Days 20 (Base 50)    
Moisture  
Dew Point 50 °F    
Average Humidity 50    
Maximum Humidity 70    
Minimum Humidity 30    
Precipitation  
Precipitation 0.00 in 0.01 in 0.21 in (2002)
Month to date precipitation 0.68 0.09  
Year to date precipitation 3.87 6.97  
Sea Level Pressure  
Sea Level Pressure 29.95 in    
Wind  
Wind Speed 9 mph (WSW)    
Max Wind Speed 20 mph    
Max Gust Speed 24 mph    
Visibility 10 miles    
Events      
T = Trace of Precipitation, MM = Missing Value Source: NWS Daily Summary

Daily Weather History Graph

Daily Weather History Graph

Search for Another Location

Airport or City:

Trip Planner

Search our weather history database for the weather conditions in past years. The results will help you decide how hot, cold, wet, or windy it might be!

Date:

Astronomy

Sep. 06, 2013 Rise Set
Actual Time 7:08 AM MDT 8:02 PM MDT
Civil Twilight 6:40 AM MDT 8:31 PM MDT
Nautical Twilight 6:05 AM MDT 9:05 PM MDT
Astronomical Twilight 5:30 AM MDT 9:40 PM MDT
Moon 8:28 AM MDT (9/6) 8:26 PM MDT (9/6)
Length of Visible Light 13h 51m
Length of Day
12h 54m
New Moon, 2% of the Moon is Illuminated
Sep 6
New Moon
Sep 12
First Quarter
Sep 19
Full
Sep 26
Last Quarter
Oct 4
New

Hourly Weather History & Observations

Time (MDT) Temp. Dew Point Humidity Pressure Visibility Wind Dir Wind Speed Gust Speed Precip Events Conditions
12:53 AM 73.9 °F 55.0 °F 52% 29.80 in 10.0 mi South 17.3 mph 24.2 mph N/A   Clear
1:53 AM 70.0 °F 59.0 °F 68% 29.86 in 10.0 mi SSW 15.0 mph - N/A   Clear
2:53 AM 69.1 °F 52.0 °F 54% 29.86 in 10.0 mi SSW 12.7 mph - N/A   Clear
3:53 AM 66.0 °F 48.0 °F 52% 29.88 in 10.0 mi South 11.5 mph - N/A   Clear
4:53 AM 64.9 °F 45.0 °F 48% 29.92 in 10.0 mi SSW 12.7 mph - N/A   Clear
5:53 AM 63.0 °F 43.0 °F 48% 29.96 in 10.0 mi SSW 9.2 mph - N/A   Clear
6:53 AM 60.1 °F 44.1 °F 55% 29.97 in 10.0 mi SSW 9.2 mph - N/A   Clear
7:53 AM 64.0 °F 48.0 °F 56% 29.99 in 10.0 mi SSW 6.9 mph - N/A   Clear
8:53 AM 66.9 °F 50.0 °F 54% 30.01 in 10.0 mi SW 8.1 mph - N/A   Clear
9:53 AM 70.0 °F 55.9 °F 61% 30.01 in 10.0 mi West 8.1 mph - N/A   Clear
10:53 AM 70.0 °F 57.0 °F 63% 30.02 in 10.0 mi West 9.2 mph - N/A   Clear
11:53 AM 73.0 °F 57.9 °F 59% 30.01 in 10.0 mi West 9.2 mph - N/A   Clear
12:53 PM 75.0 °F 57.9 °F 55% 29.99 in 10.0 mi WNW 9.2 mph - N/A   Clear
1:53 PM 75.9 °F 55.9 °F 50% 29.98 in 10.0 mi WNW 6.9 mph - N/A   Clear
2:53 PM 78.1 °F 55.0 °F 45% 29.95 in 10.0 mi NNW 11.5 mph - N/A   Clear
3:53 PM 79.0 °F 48.9 °F 35% 29.94 in 10.0 mi NW 10.4 mph - N/A   Clear
4:53 PM 79.0 °F 44.1 °F 29% 29.94 in 10.0 mi NW 9.2 mph - N/A   Clear
5:53 PM 78.1 °F 44.1 °F 30% 29.95 in 10.0 mi NNW 4.6 mph - N/A   Clear
6:53 PM 78.1 °F 44.1 °F 30% 29.94 in 10.0 mi WNW 4.6 mph - N/A   Clear
7:53 PM 73.0 °F 46.0 °F 38% 29.93 in 10.0 mi WSW 4.6 mph - N/A   Clear
8:53 PM 68.0 °F 50.0 °F 52% 29.95 in 10.0 mi SW 5.8 mph - N/A   Clear
9:53 PM 68.0 °F 45.0 °F 43% 29.97 in 10.0 mi WSW 8.1 mph - N/A   Clear
10:53 PM 66.0 °F 44.1 °F 45% 29.99 in 10.0 mi SW 9.2 mph - N/A   Clear
11:53 PM 64.9 °F 43.0 °F 45% 29.99 in 10.0 mi SSW 10.4 mph - N/A   Clear